This is the latest recevied weather packets stored in our database for station/object G4KVI. If no packets are shown the sender has not sent any weather packets the latest 10 day(s).
| Time | Temp. | Humidity | Pressure | Rain* | Wind** | Luminosity | Snow |
|---|---|---|---|---|---|---|---|
| 1788629105 | 20° C | 56% | 1027.3 hPa | 0 mm | - | 50 W/m² | - |
| 1788628805 | 20° C | 56% | 1027 hPa | 0 mm | - | 88 W/m² | - |
| 1788628505 | 19.44° C | 57% | 1027 hPa | 0 mm | - | 95 W/m² | - |
| 1788628205 | 19.44° C | 56% | 1026.9 hPa | 0 mm | - | 51 W/m² | - |
| 1788627905 | 19.44° C | 57% | 1027.3 hPa | 0 mm | - | 55 W/m² | - |
| 1788627605 | 19.44° C | 57% | 1026.9 hPa | 0 mm | - | 124 W/m² | - |
| 1788627305 | 19.44° C | 56% | 1026.9 hPa | 0 mm | - | 145 W/m² | - |
| 1788627005 | 20° C | 56% | 1026.8 hPa | 0 mm | - | 156 W/m² | - |
| 1788626705 | 20° C | 55% | 1026.9 hPa | 0 mm | - | 168 W/m² | - |
| 1788626405 | 20.56° C | 54% | 1027.1 hPa | 0 mm | - | 178 W/m² | - |
| 1788626105 | 20° C | 55% | 1027.2 hPa | 0 mm | - | 193 W/m² | - |
| 1788625805 | 20.56° C | 54% | 1027 hPa | 0 mm | - | 206 W/m² | - |
| 1788625505 | 20.56° C | 53% | 1027.1 hPa | 0 mm | - | 218 W/m² | - |
| 1788625205 | 20° C | 55% | 1026.9 hPa | 0 mm | - | 229 W/m² | - |
| 1788624905 | 20° C | 54% | 1027 hPa | 0 mm | - | 240 W/m² | - |
| 1788624605 | 20° C | 54% | 1027 hPa | 0 mm | - | 256 W/m² | - |
| 1788624305 | 20.56° C | 54% | 1026.9 hPa | 0 mm | - | 269 W/m² | - |
| 1788624005 | 21.11° C | 52% | 1027.1 hPa | 0 mm | - | 281 W/m² | - |
| 1788623705 | 21.11° C | 52% | 1027 hPa | 0 mm | - | 294 W/m² | - |
| 1788623405 | 21.11° C | 52% | 1027 hPa | 0 mm | - | 304 W/m² | - |
| 1788623105 | 20.56° C | 52% | 1027.2 hPa | 0 mm | - | 318 W/m² | - |
| 1788622805 | 20.56° C | 53% | 1027.2 hPa | 0 mm | - | 332 W/m² | - |
| 1788622505 | 21.11° C | 52% | 1027.2 hPa | 0 mm | - | 343 W/m² | - |
| 1788622205 | 20.56° C | 53% | 1027.1 hPa | 0 mm | - | 355 W/m² | - |
| 1788621905 | 20.56° C | 54% | 1027.2 hPa | 0 mm | - | 369 W/m² | - |
* Rain latest hour (hover to see other rain measurements)
** Current wind speed in m/s (hover to see current wind gust speed)